Hourly Weather Roundup
Issued by NWS Central Illinois

Home | Current Version | Previous Version | Text Only | Print | Product List | Glossary On
Versions: 1 2 3 4 5 6 7 8 9 10 11 12 13 14 15 16 17 18 19 20 21 22 23 24 25 26 27 28 29 30 31 32 33 34 35 36 37 38 39 40 41 42 43 44 45 46 47 48 49 50
000
NZUS43 KILX 272310
HWRILX

Area Weather Roundup
National Weather Service Lincoln IL
600 PM CDT SAT MAY 27 2017

NOTE:  "FAIR" indicates few or no clouds below 12,000 feet, with
       no sigificant weather and/or obstructions to visibility.


CITY           SKY/WX    TMP DP  RH WIND       PRES   REMARKS
Bloomington    CLOUDY    76  63  64 S8        29.87R
Champaign      CLOUDY    73  63  70 SE6       29.87R
Danville       CLOUDY    72  63  74 CALM      29.85R
Decatur        CLOUDY    76  62  62 E6        29.85F
Effingham      CLOUDY    78  66  67 CALM      29.85S HX  80
Flora          PTSUNNY   76  65  69 W7        29.84S
Galesburg      CLOUDY    73  64  72 SE5       29.83R
Jacksonville   CLOUDY    75  64  67 S9        29.87R
Lacon          CLOUDY    76  62  63 CALM      29.83S
Lawrenceville  CLOUDY    79  68  69 N9        29.81F HX  81
Litchfield     CLOUDY    75  64  68 SW7       29.90R
$$


CITY           SKY/WX    TMP DP  RH WIND       PRES   REMARKS
Lincoln        CLOUDY    80  62  53 SE7       29.84S HX  82
Macomb         CLOUDY    74  64  69 SE9       29.84S
Mattoon        PTSUNNY   76  66  71 CALM      29.83F
Mt Carmel AP   LGT RAIN  79  68  69 N7        29.81S HX  81
Olney-Noble AP CLOUDY    73  62  68 S6G12     29.84R
Paris AP       CLOUDY    74  66  75 N3        29.86S
Peoria         PTSUNNY   76  63  64 E5        29.83F
Pontiac        MOSUNNY   78  63  61 SE5       29.85S
Rantoul        CLOUDY    75  65  71 SE3       29.87R
Robinson       PTSUNNY   76  65  67 N7        29.83F
Springfield    CLOUDY    78  63  59 S3        29.84R HX  80
Taylorville    CLOUDY    77  63  62 S3        29.85S
$$

...REGIONAL REPORTS...


CITY           SKY/WX    TMP DP  RH WIND       PRES   REMARKS
Chicago O`Hare MOSUNNY   73  56  54 E10       29.85F
Kankakee       SUNNY     82  61  48 CALM      29.86S HX  83
Moline         CLOUDY    75  62  64 E6        29.82F
Mount Sterling CLOUDY    73  64  72 E21       29.74F
Mount Vernon     N/A     66  63  90 CALM      29.83S
Pittsfield     LGT RAIN  73  66  77 SE21      29.78F
Quincy         CLOUDY    74  62  66 SE21G33   29.72F
Rockford       CLOUDY    76  60  57 CALM      29.85F
$$


CITY           SKY/WX    TMP DP  RH WIND       PRES   REMARKS
Burlington     CLOUDY    73  65  75 E5        29.81R
Cedar Rapids   LGT RAIN  62  62 100 N13       29.86R FOG
Des Moines     PTSUNNY   68  58  70 NE13      29.87R
Kirksville     CLOUDY    75  64  68 E3        29.82R
Ottumwa        CLOUDY    71  63  75 N10       29.83R
St Louis       TSTM      68  62  81 SW10      29.96R
$$


CITY           SKY/WX    TMP DP  RH WIND       PRES   REMARKS
Terre Haute    MOSUNNY   77  63  61 N7        29.83F
Evansville     CLOUDY    79  63  57 SW12      29.77F HX  80
Indianapolis   CLOUDY    76  63  64 NW8       29.84S
Lafayette      CLOUDY    73  63  70 NW3       29.85F
Madison        PTSUNNY   75  58  55 NW3       29.84R
Milwaukee      MOSUNNY   69  55  60 SE10      29.87R
$$






USA.gov is the U.S. government's official web portal to all federal, state and local government web resources and services.